Regional Weather Roundup
Issued by NWS

Home | Current Version | Previous Version | Text Only | Print | Product List | Glossary On
Versions: 1 2 3 4 5 6 7 8 9 10 11 12 13 14 15 16 17 18 19 20 21 22 23 24 25 26 27 28 29 30 31 32 33 34 35 36 37 38 39 40 41 42 43 44 45 46 47 48 49 50
000
ASUS44 KFWD 111903
RWRTX
NORTH TEXAS HOURLY WEATHER ROUNDUP
NATIONAL WEATHER SERVICE FORT WORTH TX
100 PM CST THU FEB 11 2016

NOTE: "FAIR" INDICATES FEW OR NO CLOUDS BELOW 12,000 FEET WITH NO
SIGNIFICANT WEATHER AND/OR OBSTRUCTIONS TO VISIBILITY.

TXZ118-119-112000-
DALLAS/FORT WORTH METROPLEX

CITY           SKY/WX    TMP DP  RH WIND       PRES   REMARKS
DFW AIRPORT    PTSUNNY   71  28  20 NW10      30.08F
DALLAS LOVE    PTSUNNY   72  30  21 NW13      30.08F
FTW MEACHAM    SUNNY     74  31  20 NW7       30.08F
DAL-EXECUTIVE  SUNNY     73  31  21 NW12      30.08F
FTW-ALLIANCE   MOSUNNY   70  31  23 VRB6      30.09F
FTW-NAS-JRB    PTSUNNY   74  28  18 NW3       30.09F
FTW-SPINKS     SUNNY     75  30  19 W9        30.10F
ARLINGTON      SUNNY     75  31  19 N5        30.09F
GRAND PRAIRIE  SUNNY     72  30  21 W7        30.10F
ADDISON        MOSUNNY   70  32  24 NW9       30.09F
MESQUITE       SUNNY     73  28  19 W13       30.09F
LANCASTER      SUNNY     72  26  17 CALM      30.10F
$$

TXZ091>094-102>105-117-120-121-131>134-112000-
NORTH CENTRAL TEXAS

CITY           SKY/WX    TMP DP  RH WIND       PRES   REMARKS
SHRMAN/DENISON SUNNY     67  35  30 NE8       30.11F
GAINESVILLE    SUNNY     67  33  28 NE5       30.12F
BRIDGEPORT     SUNNY     66  38  35 W3        30.13F
DECATUR        SUNNY     67  32  27 E5        30.11F
DENTON         SUNNY     67  36  31 CALM      30.10F
MCKINNEY       SUNNY     70  37  29 CALM      30.09F
GREENVILLE     SUNNY     72  32  23 NW7       30.09F
ROCKWALL       SUNNY     71  32  23 NW9       30.08F
TERRELL        SUNNY     73  35  25 W10       30.08F
WAXAHACHIE     SUNNY     75  37  25 W6        30.11F
CLEBURNE       SUNNY     73  34  23 CALM      30.11F
GRANBURY       SUNNY     76  33  21 NW8       30.10F
$$

TXZ083>090-098>101-113>116-127>130-139>142-154-155-112000-
WESTERN NORTH TEXAS

CITY           SKY/WX    TMP DP  RH WIND       PRES   REMARKS
WICHITA FALLS  SUNNY     66  33  29 NE13      30.13F
WF-KICKAPOO    SUNNY     68  32  27 N10G16    30.14F
VERNON         SUNNY     64  28  25 NE13      30.17F
ABILENE        SUNNY     67  31  26 NW7       30.12F
ABILENE-DYESS  SUNNY     66  29  24 N8        30.11F
GRAHAM         SUNNY     69  35  28 NE3       30.10F
MINERAL WELLS  SUNNY     72  28  19 W6        30.08F
STEPHENVILLE   SUNNY     76  27  16 W7        30.12F
COMANCHE       SUNNY     76  33  20 W6        30.10F
BROWNWOOD      SUNNY     77  28  16 W9        30.10F
COLEMAN        SUNNY     77  26  15 W10       30.10F
$$

TXZ143>147-156>162-174-175-112000-
CENTRAL TEXAS

CITY           SKY/WX    TMP DP  RH WIND       PRES   REMARKS
WACO           SUNNY     79  34  19 VRB6      30.08F
WACO-TSTC      SUNNY     75  36  23 SW5       30.10F
WACO-MCGREGOR  SUNNY     81  37  20 SW10G17   30.09F
HILLSBORO      SUNNY     73  34  23 W5        30.10F
CORSICANA      SUNNY     74  36  25 SW6       30.12F
MEXIA          SUNNY     73  37  26 SW9G16    30.10F
HEARNE         SUNNY     77  39  25 SW16      30.13F
CAMERON        SUNNY     77  41  27 SW15      30.10F
TEMPLE         SUNNY     81  36  19 SW17      30.09F
KILLEEN        SUNNY     79  33  18 S10       30.08F
KILLEEN-SKYLRK SUNNY     80  35  19 SW14      30.09F
FORT HOOD      SUNNY     80  31  17 SW10      30.07F
GATESVILLE     SUNNY     81  32  17 W9        30.10F
HAMILTON       SUNNY     79  32  18 W10       30.11F
LAMPASAS       SUNNY     78  35  21 SW10      30.09F
$$

TXZ095>097-106>112-122>126-135>138-148>153-164>167-112000-
EAST TEXAS

CITY           SKY/WX    TMP DP  RH WIND       PRES   REMARKS
PARIS          SUNNY     66  36  32 N3        30.08F
SULPHUR SPRNGS SUNNY     69  36  29 CALM      30.10F
MOUNT PLEASANT SUNNY     71  33  24 SW8       30.09F
GILMER         SUNNY     74  33  22 W3        30.07F THUNDER
MINEOLA        SUNNY     73  32  21 W12       30.09F
TYLER          SUNNY     75  33  21 SW12      30.09F
LONGVIEW       SUNNY     76  33  21 W15G22    30.07F
MARSHALL       SUNNY     75  29  18 W9G17     30.09F
ATHENS         SUNNY     70  34  26 SW5       30.10F
PALESTINE      SUNNY     76  38  25 SW8       30.12F
JACKSONVILLE   SUNNY     73  36  25 W9        30.12F
HENDERSON      SUNNY     75  35  22 W8        30.10F
CENTER         FAIR      77  35  22 SW9G18    30.09F
NACOGDOCHES    SUNNY     73  37  27 W12G21    30.11F
LUFKIN         SUNNY     76  39  26 SW14G24   30.12F
$$

SUPPLEMENTAL OBSERVATIONS (CENTRAL)

CITY           SKY/WX    TMP DP  RH WIND       PRES   REMARKS
$$

SUPPLEMENTAL OBSERVATIONS (WEST)

CITY           SKY/WX    TMP DP  RH WIND       PRES   REMARKS
$$

SUPPLEMENTAL OBSERVATIONS (EAST)

CITY           SKY/WX    TMP DP  RH WIND       PRES   REMARKS
$$

SUPPLEMENTAL OBSERVATIONS ARE A COLLECTION OF AUTOMATED INSTRUMENTS
THAT ARE MAINTAINED BY A VARIETY OF FEDERAL AND STATE AGENCIES.
CERTAIN ELEMENTS...SUCH AS HUMIDITY VALUES AND SUSTAINED WIND
SPEEDS...MAY BE APPROXIMATED.




USA.gov is the U.S. government's official web portal to all federal, state and local government web resources and services.